Starlink 31192

operational
NORAD ID: 58794 Int'l Des: 2024-012 Owner: SPXS Country: US Constellation: starlink
LEOCIRCULAR

About Starlink 31192

Description loading...

Live Position

Loading 3D Globe...

Upcoming Passes

Altitude History

Altitude vs Time

uPlot chart will show altitude changes over time

Two-Line Element Set

1 58794U 24012H 25353.47013755 .00000716 00000-0 35531-4 0 9997
2 58794 43.0033 258.6081 0001447 263.7133 96.3554 15.27577789108963
Epoch: Dec 19, 2025 • Age: 27 hours

Current Status

Altitude 483.1 km
Velocity 7.63 km/s
Sub-Earth Point -2.46°S, 48.88°W
Launch Date Jan 15, 2024
Age 1.9 years
Type internet

Technical Details

Classification Payload
Mass 730.00 kg
Dry Mass 700.00 kg
Total Mass 730.00 kg
Length 0.30 m
Diameter 4.10 m
Span 29.00 m
Shape Box + pan
Manufacturer SPXS
Bus Type Starlink V2M
Phase Status In Orbit
Owner/State SPXS/US

Large Constellations

Loading constellations...